Flag for Poland Weather past 2 weeks in Słupsk, Poland

Now
59 °F

Clear.


Feels Like: 60 °F
Forecast: 55 / 73 °F
Wind: 3 mph from East

Location: Leba

Current Time: Aug 4, 2015 at 2:28:54 AM

Latest Report: Aug 4, 2015 at 1:00 AM


Visibility: 13 mi

Pressure: 30.14 "Hg

Humidity: 81%

Dew point: 53 °F

Location of SłupskLocation

Historic Weather in Słupsk — Graph

°F

Słupsk temperature yesterday

Maximum temperature yesterday: 70 °F (at 4:00 PM)
Minimum temperature yesterday: 56 °F (at 4:00 AM)
Average temperature yesterday: 65 °F

Past Weeks' High & Low Weather Summary

 TemperatureHumidityPressure
High78 °F (Jul 25, 6:00 PM)100% (Jul 21, 6:00 AM)30.17 "Hg (Jul 21, 6:00 AM)
Low49 °F (Aug 2, 2:00 AM)41% (Jul 22, 4:00 PM)29.50 "Hg (Jul 28, 6:00 AM)
Average61 °F80%29.84 "Hg
* Reported Jul 20 1:00 AM — Aug 4 1:00 AM, Słupsk, Weather by CustomWeather, © 2015

Note: Actual official high and low records may vary slightly from our data, if they occured in-between our weather recording intervals... More about our weather records

Advertising

Słupsk weather history for previous 24 hours

 ConditionsComfort  
Time TempWeatherWind HumidityBarometerVisibility
1:00 AM
Tue, Aug 4
59 °FClear.3 mph81%30.14 "Hg12 mi
12:00 AM59 °FClear.2 mph79%30.15 "Hg12 mi
10:00 PM
Mon, Aug 3
61 °FPassing clouds.3 mph79%30.15 "Hg7 mi
9:00 PM63 °FPassing clouds.3 mph74%30.15 "Hg9 mi
8:00 PM68 °FPassing clouds.5 mph61%30.14 "Hg12 mi
7:00 PM69 °FPassing clouds.5 mph72%30.14 "Hg12 mi
6:00 PM68 °FPassing clouds.6 mph71%30.14 "Hg12 mi
5:00 PM69 °FScattered clouds.7 mph62%30.15 "Hg12 mi
4:00 PM70 °FScattered clouds.6 mph66%30.16 "Hg12 mi
3:00 PM69 °FScattered clouds.6 mph67%30.16 "Hg12 mi
2:00 PM69 °FScattered clouds.6 mph71%30.17 "Hg12 mi
1:00 PM69 °FPassing clouds.5 mph69%30.16 "Hg12 mi
12:00 PM69 °FPassing clouds.5 mph68%30.16 "Hg12 mi
11:00 AM68 °FPassing clouds.6 mph69%30.16 "Hg12 mi
10:00 AM68 °FPassing clouds.3 mph72%30.15 "Hg12 mi
9:00 AM67 °FPassing clouds.3 mph78%30.15 "Hg12 mi
8:00 AM66 °FSunny.2 mph83%30.15 "Hg12 mi
7:00 AM62 °FFog.3 mph99%30.14 "Hg12 mi
4:00 AM56 °FFog.No wind99%30.12 "Hg0 mi
3:00 AM58 °FFog.No wind98%30.12 "Hg0 mi
2:00 AM60 °FFog.1 mph97%30.12 "Hg6 mi
Weather by CustomWeather, © 2015

See weather overviewHow to use our weather pages